Time,TemperatureF,DewpointF,PressureIn,WindDirection,WindDirectionDegrees,WindSpeedMPH,WindSpeedGustMPH,Humidity,HourlyPrecipIn,Conditions,Clouds,dailyrainin,SoftwareType,DateUTC
2013-05-10 00:04:00,60.3,58.5,-100.00,SW,219,0.0,1.0,94,0.00,,,0.00,meteohub,2013-05-10 05:04:00,
2013-05-10 00:09:00,60.1,58.3,-100.00,SW,219,0.0,1.0,94,0.00,,,0.00,meteohub,2013-05-10 05:09:00,
2013-05-10 00:14:00,60.1,58.3,-100.00,SW,219,0.0,0.0,94,0.00,,,0.00,meteohub,2013-05-10 05:14:00,
2013-05-10 00:19:00,60.1,58.3,-100.00,SW,219,0.0,0.0,94,0.00,,,0.00,meteohub,2013-05-10 05:19:00,
2013-05-10 00:24:00,59.9,58.1,-100.00,SW,219,0.0,3.0,94,0.00,,,0.00,meteohub,2013-05-10 05:24:00,
2013-05-10 00:29:00,59.7,57.9,-100.00,SW,219,0.0,3.0,94,0.00,,,0.00,meteohub,2013-05-10 05:29:00,
2013-05-10 00:34:00,59.7,57.9,-100.00,SW,219,0.0,3.0,94,0.00,,,0.00,meteohub,2013-05-10 05:34:00,
2013-05-10 00:39:00,59.7,57.9,-100.00,SW,225,3.0,3.0,94,0.00,,,0.00,meteohub,2013-05-10 05:39:00,
2013-05-10 00:44:00,59.9,58.1,-100.00,SW,225,0.0,5.0,94,0.00,,,0.00,meteohub,2013-05-10 05:44:00,
2013-05-10 00:49:00,59.9,58.1,-100.00,SW,225,0.0,5.0,94,0.00,,,0.00,meteohub,2013-05-10 05:49:00,
2013-05-10 00:54:00,59.9,58.1,-100.00,SW,225,3.0,5.0,94,0.00,,,0.00,meteohub,2013-05-10 05:54:00,
2013-05-10 00:59:00,59.9,58.1,-100.00,SW,226,0.0,3.0,94,0.00,,,0.00,meteohub,2013-05-10 05:59:00,
2013-05-10 01:04:00,59.9,58.1,-100.00,SW,226,0.0,5.0,94,0.00,,,0.00,meteohub,2013-05-10 06:04:00,
2013-05-10 01:09:00,59.9,58.1,-100.00,SW,226,0.0,5.0,94,0.00,,,0.00,meteohub,2013-05-10 06:09:00,
2013-05-10 01:15:00,59.7,57.9,-100.00,SW,226,0.0,4.0,94,0.00,,,0.00,meteohub,2013-05-10 06:15:00,
2013-05-10 01:20:00,59.7,57.9,-100.00,SW,225,0.0,1.0,94,0.00,,,0.00,meteohub,2013-05-10 06:20:00,
2013-05-10 01:25:00,59.7,57.9,-100.00,SW,225,0.0,4.0,94,0.00,,,0.00,meteohub,2013-05-10 06:25:00,
2013-05-10 01:30:00,59.5,57.6,-100.00,SW,225,0.0,5.0,93,0.00,,,0.00,meteohub,2013-05-10 06:30:00,
2013-05-10 01:32:00,59.5,57.6,-100.00,SW,225,0.0,5.0,93,0.00,,,0.00,meteohub,2013-05-10 06:32:00,
2013-05-10 01:37:00,59.5,57.6,-100.00,SW,225,0.0,5.0,93,0.00,,,0.00,meteohub,2013-05-10 06:37:00,
2013-05-10 01:42:00,59.5,57.6,-100.00,SW,225,0.0,4.0,93,0.00,,,0.00,meteohub,2013-05-10 06:42:00,
2013-05-10 01:47:00,59.4,57.4,-100.00,SW,225,0.0,4.0,93,0.00,,,0.00,meteohub,2013-05-10 06:47:00,
2013-05-10 01:52:00,59.4,57.4,-100.00,SW,234,0.0,3.0,93,0.00,,,0.00,meteohub,2013-05-10 06:52:00,
2013-05-10 01:57:00,59.2,57.2,-100.00,SW,235,0.0,4.0,93,0.00,,,0.00,meteohub,2013-05-10 06:57:00,
2013-05-10 02:02:00,59.0,57.0,-100.00,SW,234,0.0,4.0,93,0.00,,,0.00,meteohub,2013-05-10 07:02:00,
2013-05-10 02:07:00,59.0,57.0,-100.00,SW,235,0.0,4.0,93,0.00,,,0.00,meteohub,2013-05-10 07:07:00,
2013-05-10 02:12:00,59.0,57.0,-100.00,SW,234,0.0,4.0,93,0.00,,,0.00,meteohub,2013-05-10 07:12:00,
2013-05-10 02:17:00,59.0,57.0,-100.00,SW,235,0.0,1.0,93,0.00,,,0.00,meteohub,2013-05-10 07:17:00,
2013-05-10 02:22:00,59.0,57.0,-100.00,WSW,257,0.0,1.0,93,0.00,,,0.00,meteohub,2013-05-10 07:22:00,
2013-05-10 02:27:00,59.0,57.0,-100.00,WSW,257,0.0,5.0,93,0.00,,,0.00,meteohub,2013-05-10 07:27:00,
2013-05-10 02:32:00,59.0,57.0,-100.00,West,261,0.0,6.0,93,0.00,,,0.00,meteohub,2013-05-10 07:32:00,
2013-05-10 02:37:00,59.0,57.0,-100.00,WSW,257,0.0,6.0,93,0.00,,,0.00,meteohub,2013-05-10 07:37:00,
2013-05-10 02:42:00,59.2,57.2,-100.00,West,277,1.0,6.0,93,0.00,,,0.00,meteohub,2013-05-10 07:42:00,
2013-05-10 02:44:00,59.2,57.2,-100.00,West,267,0.0,6.0,93,0.00,,,0.00,meteohub,2013-05-10 07:44:00,
2013-05-10 02:45:00,59.2,57.2,-100.00,West,278,0.0,7.0,93,0.00,,,0.00,meteohub,2013-05-10 07:45:00,
2013-05-10 02:50:00,59.2,57.2,-100.00,WSW,255,0.0,7.0,93,0.00,,,0.00,meteohub,2013-05-10 07:50:00,
2013-05-10 02:55:00,59.0,57.0,-100.00,West,275,0.0,7.0,93,0.00,,,0.00,meteohub,2013-05-10 07:55:00,
2013-05-10 03:00:00,59.0,57.0,-100.00,West,263,0.0,6.0,93,0.00,,,0.00,meteohub,2013-05-10 08:00:00,
2013-05-10 03:05:00,59.0,57.0,-100.00,West,276,0.0,6.0,93,0.00,,,0.00,meteohub,2013-05-10 08:05:00,
2013-05-10 03:10:00,59.0,57.0,-100.00,West,280,0.0,6.0,93,0.00,,,0.00,meteohub,2013-05-10 08:10:00,
2013-05-10 03:15:00,59.2,57.2,-100.00,NW,304,4.0,6.0,93,0.00,,,0.00,meteohub,2013-05-10 08:15:00,
2013-05-10 03:20:00,59.2,57.2,-100.00,West,275,0.0,6.0,93,0.00,,,0.00,meteohub,2013-05-10 08:20:00,
2013-05-10 03:25:00,59.4,57.4,-100.00,West,281,0.0,6.0,93,0.00,,,0.00,meteohub,2013-05-10 08:25:00,
2013-05-10 03:30:00,59.4,57.4,-100.00,West,269,0.0,7.0,93,0.00,,,0.00,meteohub,2013-05-10 08:30:00,
2013-05-10 03:35:00,59.4,57.4,-100.00,West,271,0.0,7.0,93,0.00,,,0.00,meteohub,2013-05-10 08:35:00,
2013-05-10 03:40:00,59.4,57.4,-100.00,WNW,295,0.0,4.0,93,0.00,,,0.00,meteohub,2013-05-10 08:40:00,
2013-05-10 03:45:00,59.4,57.4,-100.00,West,275,0.0,7.0,93,0.00,,,0.00,meteohub,2013-05-10 08:45:00,
2013-05-10 03:50:00,59.4,57.4,-100.00,West,268,0.0,7.0,93,0.00,,,0.00,meteohub,2013-05-10 08:50:00,
2013-05-10 03:55:00,59.2,57.2,-100.00,WNW,294,0.0,8.0,93,0.00,,,0.00,meteohub,2013-05-10 08:55:00,
2013-05-10 04:00:00,59.0,57.0,-100.00,West,271,0.0,8.0,93,0.00,,,0.00,meteohub,2013-05-10 09:00:00,
2013-05-10 04:05:00,59.0,57.0,-100.00,West,261,0.0,7.0,93,0.00,,,0.00,meteohub,2013-05-10 09:05:00,
2013-05-10 04:10:00,59.0,57.0,-100.00,West,263,2.0,7.0,93,0.00,,,0.00,meteohub,2013-05-10 09:10:00,
2013-05-10 04:15:00,59.0,57.0,-100.00,WNW,284,0.0,4.0,93,0.00,,,0.00,meteohub,2013-05-10 09:15:00,
2013-05-10 04:20:00,59.0,57.0,-100.00,WNW,285,0.0,4.0,93,0.00,,,0.00,meteohub,2013-05-10 09:20:00,
2013-05-10 04:25:00,59.0,57.0,-100.00,WNW,301,0.0,7.0,93,0.00,,,0.00,meteohub,2013-05-10 09:25:00,
2013-05-10 04:30:00,59.0,57.0,-100.00,WNW,303,0.0,7.0,93,0.00,,,0.00,meteohub,2013-05-10 09:30:00,
2013-05-10 04:32:00,59.0,57.0,-100.00,WNW,303,0.0,7.0,93,0.00,,,0.00,meteohub,2013-05-10 09:32:00,
2013-05-10 04:37:00,59.0,57.0,-100.00,WNW,286,0.0,7.0,93,0.00,,,0.00,meteohub,2013-05-10 09:37:00,
2013-05-10 04:42:00,59.0,57.0,-100.00,WNW,294,0.0,6.0,93,0.00,,,0.00,meteohub,2013-05-10 09:42:00,
2013-05-10 04:47:00,59.0,57.0,-100.00,WNW,288,1.0,5.0,93,0.00,,,0.00,meteohub,2013-05-10 09:47:00,
2013-05-10 04:52:00,59.0,57.0,-100.00,WNW,292,0.0,5.0,93,0.00,,,0.00,meteohub,2013-05-10 09:52:00,
2013-05-10 04:57:00,59.0,57.0,-100.00,West,281,0.0,7.0,93,0.00,,,0.00,meteohub,2013-05-10 09:57:00,
2013-05-10 05:02:00,59.0,57.0,-100.00,West,272,0.0,7.0,93,0.00,,,0.00,meteohub,2013-05-10 10:02:00,
2013-05-10 05:07:00,59.0,56.7,-100.00,WNW,289,0.0,7.0,92,0.00,,,0.00,meteohub,2013-05-10 10:07:00,
2013-05-10 05:12:00,59.0,56.7,-100.00,WNW,284,0.0,7.0,92,0.00,,,0.00,meteohub,2013-05-10 10:12:00,
2013-05-10 05:17:00,59.0,56.7,-100.00,West,275,10.0,10.0,92,0.00,,,0.00,meteohub,2013-05-10 10:17:00,
2013-05-10 05:22:00,58.8,56.5,-100.00,West,275,1.0,10.0,92,0.00,,,0.00,meteohub,2013-05-10 10:22:00,
2013-05-10 05:27:00,58.8,56.5,-100.00,WNW,298,3.0,14.0,92,0.00,,,0.00,meteohub,2013-05-10 10:27:00,
2013-05-10 05:32:00,58.8,56.1,-100.00,WNW,284,10.0,14.0,91,0.00,,,0.00,meteohub,2013-05-10 10:32:00,
2013-05-10 05:37:00,58.6,55.9,-100.00,WNW,299,6.0,12.0,91,0.00,,,0.00,meteohub,2013-05-10 10:37:00,
2013-05-10 05:42:00,58.5,55.6,-100.00,WNW,283,4.0,13.0,90,0.00,,,0.00,meteohub,2013-05-10 10:42:00,
2013-05-10 05:47:00,58.5,55.6,-100.00,WNW,284,0.0,14.0,90,0.00,,,0.00,meteohub,2013-05-10 10:47:00,
2013-05-10 05:52:00,58.3,55.0,-100.00,NW,306,6.0,14.0,89,0.00,,,0.00,meteohub,2013-05-10 10:52:00,
2013-05-10 05:57:00,58.1,54.5,-100.00,WNW,296,5.0,14.0,88,0.00,,,0.00,meteohub,2013-05-10 10:57:00,
2013-05-10 06:02:00,58.1,54.5,-100.00,NNW,331,6.0,20.0,88,0.00,,,0.00,meteohub,2013-05-10 11:02:00,
2013-05-10 06:07:00,57.9,54.3,-100.00,WNW,300,5.0,20.0,88,0.00,,,0.00,meteohub,2013-05-10 11:07:00,
2013-05-10 06:12:00,57.9,54.3,-100.00,WNW,295,4.0,19.0,88,0.00,,,0.00,meteohub,2013-05-10 11:12:00,
2013-05-10 06:17:00,57.7,54.1,-100.00,NW,313,13.0,16.0,88,0.00,,,0.00,meteohub,2013-05-10 11:17:00,
2013-05-10 06:22:00,57.7,54.5,-100.00,NW,315,9.0,15.0,89,0.00,,,0.00,meteohub,2013-05-10 11:22:00,
2013-05-10 06:27:00,57.7,54.5,-100.00,West,277,1.0,14.0,89,0.00,,,0.00,meteohub,2013-05-10 11:27:00,
2013-05-10 06:32:00,57.7,54.5,-100.00,West,259,0.0,15.0,89,0.00,,,0.00,meteohub,2013-05-10 11:32:00,
2013-05-10 06:37:00,57.7,54.9,-100.00,West,275,2.0,15.0,90,0.00,,,0.00,meteohub,2013-05-10 11:37:00,
2013-05-10 06:42:00,57.7,54.9,-100.00,West,263,0.0,15.0,90,0.00,,,0.00,meteohub,2013-05-10 11:42:00,
2013-05-10 06:47:00,57.7,54.9,-100.00,WNW,302,0.0,10.0,90,0.00,,,0.00,meteohub,2013-05-10 11:47:00,
2013-05-10 06:52:00,57.7,54.9,-100.00,West,262,2.0,4.0,90,0.00,,,0.00,meteohub,2013-05-10 11:52:00,
2013-05-10 06:57:00,57.7,54.9,-100.00,WNW,294,0.0,17.0,90,0.00,,,0.00,meteohub,2013-05-10 11:57:00,
2013-05-10 07:02:00,57.9,55.0,-100.00,NW,317,5.0,17.0,90,0.00,,,0.00,meteohub,2013-05-10 12:02:00,
2013-05-10 07:07:00,57.7,54.9,-100.00,WNW,290,2.0,17.0,90,0.00,,,0.00,meteohub,2013-05-10 12:07:00,
2013-05-10 07:12:00,57.7,54.9,-100.00,WSW,246,1.0,9.0,90,0.00,,,0.00,meteohub,2013-05-10 12:12:00,
2013-05-10 07:17:00,57.7,54.9,-100.00,WNW,289,4.0,12.0,90,0.00,,,0.00,meteohub,2013-05-10 12:17:00,
2013-05-10 07:22:00,57.7,55.2,-100.00,NW,313,4.0,12.0,91,0.00,,,0.00,meteohub,2013-05-10 12:22:00,
2013-05-10 07:27:00,57.6,55.0,-100.00,WNW,292,3.0,12.0,91,0.00,,,0.00,meteohub,2013-05-10 12:27:00,
2013-05-10 07:32:00,57.6,55.0,-100.00,WNW,288,3.0,16.0,91,0.00,,,0.00,meteohub,2013-05-10 12:32:00,
2013-05-10 07:37:00,57.4,54.9,-100.00,WNW,302,6.0,16.0,91,0.00,,,0.00,meteohub,2013-05-10 12:37:00,
2013-05-10 07:42:00,57.4,54.9,-100.00,West,279,12.0,16.0,91,0.00,,,0.00,meteohub,2013-05-10 12:42:00,
2013-05-10 07:47:00,57.4,54.9,-100.00,WNW,294,2.0,14.0,91,0.00,,,0.00,meteohub,2013-05-10 12:47:00,
2013-05-10 07:52:00,57.4,54.9,-100.00,NW,323,12.0,16.0,91,0.00,,,0.00,meteohub,2013-05-10 12:52:00,
2013-05-10 07:57:00,57.4,54.9,-100.00,NNW,332,10.0,16.0,91,0.00,,,0.00,meteohub,2013-05-10 12:57:00,
2013-05-10 08:02:00,57.4,54.9,-100.00,NW,312,11.0,16.0,91,0.00,,,0.00,meteohub,2013-05-10 13:02:00,
2013-05-10 08:07:00,57.4,54.9,-100.00,West,273,5.0,14.0,91,0.00,,,0.00,meteohub,2013-05-10 13:07:00,
2013-05-10 08:12:00,57.4,55.0,-100.00,WNW,294,1.0,14.0,92,0.00,,,0.00,meteohub,2013-05-10 13:12:00,
2013-05-10 08:17:00,57.4,55.0,-100.00,WNW,290,12.0,14.0,92,0.00,,,0.00,meteohub,2013-05-10 13:17:00,
2013-05-10 08:22:00,57.4,54.9,-100.00,WNW,301,10.0,15.0,91,0.00,,,0.00,meteohub,2013-05-10 13:22:00,
2013-05-10 08:27:00,57.2,54.7,-100.00,NNW,340,7.0,19.0,91,0.00,,,0.00,meteohub,2013-05-10 13:27:00,
2013-05-10 08:32:00,57.2,54.7,-100.00,WNW,294,9.0,19.0,91,0.00,,,0.00,meteohub,2013-05-10 13:32:00,
2013-05-10 08:37:00,57.0,54.5,-100.00,WNW,303,4.0,19.0,91,0.00,,,0.00,meteohub,2013-05-10 13:37:00,
2013-05-10 08:42:00,57.0,54.5,-100.00,NW,309,8.0,14.0,91,0.00,,,0.00,meteohub,2013-05-10 13:42:00,
2013-05-10 08:47:00,57.0,54.5,-100.00,WNW,292,4.0,13.0,91,0.00,,,0.00,meteohub,2013-05-10 13:47:00,
2013-05-10 08:52:00,56.8,54.3,-100.00,NW,311,4.0,13.0,91,0.00,,,0.00,meteohub,2013-05-10 13:52:00,
2013-05-10 08:58:00,56.8,54.3,-100.00,ESE,114,3.0,16.0,91,0.00,,,0.00,meteohub,2013-05-10 13:58:00,
2013-05-10 09:03:00,56.8,54.0,-100.00,North,355,6.0,16.0,90,0.00,,,0.00,meteohub,2013-05-10 14:03:00,
2013-05-10 09:08:00,56.8,54.0,-100.00,NW,315,5.0,16.0,90,0.00,,,0.00,meteohub,2013-05-10 14:08:00,
2013-05-10 09:13:00,56.8,54.0,-100.00,WSW,257,4.0,16.0,90,0.00,,,0.00,meteohub,2013-05-10 14:13:00,
2013-05-10 09:18:00,56.8,54.5,-100.00,NNW,333,5.0,16.0,92,0.00,,,0.00,meteohub,2013-05-10 14:18:00,
2013-05-10 09:23:00,56.8,54.0,-100.00,NW,314,10.0,14.0,90,0.00,,,0.00,meteohub,2013-05-10 14:23:00,
2013-05-10 09:28:00,56.5,53.6,-100.00,SE,124,6.0,14.0,90,0.00,,,0.00,meteohub,2013-05-10 14:28:00,
2013-05-10 09:33:00,56.1,53.2,-100.00,WNW,293,0.0,13.0,90,0.00,,,0.00,meteohub,2013-05-10 14:33:00,
2013-05-10 09:38:00,56.3,53.4,-100.00,North,355,5.0,16.0,90,0.00,,,0.00,meteohub,2013-05-10 14:38:00,
2013-05-10 09:43:00,56.1,53.2,-100.00,East,93,6.0,16.0,90,0.00,,,0.00,meteohub,2013-05-10 14:43:00,
2013-05-10 09:48:00,55.9,53.1,-100.00,ENE,74,0.0,15.0,90,0.00,,,0.00,meteohub,2013-05-10 14:48:00,
2013-05-10 09:53:00,55.8,53.2,-100.00,NW,312,0.0,15.0,91,0.00,,,0.00,meteohub,2013-05-10 14:53:00,
2013-05-10 09:58:00,55.8,53.2,-100.00,NNW,341,4.0,15.0,91,0.00,,,0.00,meteohub,2013-05-10 14:58:00,
2013-05-10 10:03:00,55.8,53.2,-100.00,WNW,297,0.0,13.0,91,0.00,,,0.00,meteohub,2013-05-10 15:03:00,
2013-05-10 10:08:00,55.6,52.7,-100.00,NW,318,5.0,12.0,90,0.00,,,0.00,meteohub,2013-05-10 15:08:00,
2013-05-10 10:13:00,55.4,53.1,-100.00,West,259,3.0,13.0,92,0.00,,,0.00,meteohub,2013-05-10 15:13:00,
2013-05-10 10:18:00,55.6,52.3,-100.00,North,0,0.0,13.0,89,0.00,,,0.00,meteohub,2013-05-10 15:18:00,
2013-05-10 10:23:00,55.8,52.3,-100.00,WNW,294,6.0,13.0,88,0.00,,,0.00,meteohub,2013-05-10 15:23:00,
2013-05-10 10:29:00,55.9,52.5,-100.00,NNW,342,6.0,13.0,88,0.00,,,0.00,meteohub,2013-05-10 15:29:00,
2013-05-10 10:34:00,56.1,52.3,-100.00,NW,318,0.0,11.0,87,0.00,,,0.00,meteohub,2013-05-10 15:34:00,
2013-05-10 10:39:00,56.3,52.5,-100.00,NW,322,4.0,11.0,87,0.00,,,0.00,meteohub,2013-05-10 15:39:00,
2013-05-10 10:44:00,56.7,52.5,-100.00,NW,304,0.0,11.0,86,0.00,,,0.00,meteohub,2013-05-10 15:44:00,
2013-05-10 10:49:00,56.7,52.5,-100.00,NNE,26,0.0,11.0,86,0.00,,,0.00,meteohub,2013-05-10 15:49:00,
2013-05-10 10:54:00,56.7,52.5,-100.00,WNW,300,4.0,13.0,86,0.00,,,0.00,meteohub,2013-05-10 15:54:00,
2013-05-10 10:59:00,56.8,52.7,-100.00,NNW,342,6.0,13.0,86,0.00,,,0.00,meteohub,2013-05-10 15:59:00,
2013-05-10 11:04:00,56.8,52.3,-100.00,NNW,338,6.0,13.0,85,0.00,,,0.00,meteohub,2013-05-10 16:04:00,
2013-05-10 11:09:00,57.0,52.5,-100.00,NW,323,7.0,12.0,85,0.00,,,0.00,meteohub,2013-05-10 16:09:00,
2013-05-10 11:14:00,57.0,52.2,-100.00,WNW,298,6.0,11.0,84,0.00,,,0.00,meteohub,2013-05-10 16:14:00,
2013-05-10 11:19:00,57.0,52.2,-100.00,WNW,300,4.0,11.0,84,0.00,,,0.00,meteohub,2013-05-10 16:19:00,
2013-05-10 11:24:00,57.2,52.3,-100.00,NE,34,5.0,12.0,84,0.00,,,0.00,meteohub,2013-05-10 16:24:00,
2013-05-10 11:29:00,57.0,52.2,-100.00,WNW,300,0.0,12.0,84,0.00,,,0.00,meteohub,2013-05-10 16:29:00,
2013-05-10 11:34:00,56.8,52.3,-100.00,East,79,0.0,15.0,85,0.00,,,0.00,meteohub,2013-05-10 16:34:00,
2013-05-10 11:39:00,56.8,52.3,-100.00,North,9,4.0,15.0,85,0.00,,,0.00,meteohub,2013-05-10 16:39:00,
2013-05-10 11:44:00,56.8,52.3,-100.00,NW,319,0.0,15.0,85,0.00,,,0.00,meteohub,2013-05-10 16:44:00,
2013-05-10 11:49:00,56.8,52.0,-100.00,NNW,331,8.0,13.0,84,0.00,,,0.00,meteohub,2013-05-10 16:49:00,
2013-05-10 11:54:00,56.8,52.0,-100.00,North,0,7.0,13.0,84,0.00,,,0.00,meteohub,2013-05-10 16:54:00,
2013-05-10 11:59:00,56.8,52.0,-100.00,NNE,26,1.0,11.0,84,0.00,,,0.00,meteohub,2013-05-10 16:59:00,
2013-05-10 12:04:00,56.7,51.8,-100.00,NE,41,0.0,11.0,84,0.00,,,0.00,meteohub,2013-05-10 17:04:00,
2013-05-10 12:09:00,56.5,52.0,-100.00,NE,38,0.0,11.0,85,0.00,,,0.00,meteohub,2013-05-10 17:09:00,
2013-05-10 12:14:00,56.7,52.5,-100.00,NNW,328,1.0,12.0,86,0.00,,,0.00,meteohub,2013-05-10 17:14:00,
2013-05-10 12:19:00,57.0,52.5,-100.00,North,350,2.0,12.0,85,0.00,,,0.00,meteohub,2013-05-10 17:19:00,
2013-05-10 12:24:00,56.8,51.8,-100.00,NNE,26,0.0,11.0,83,0.00,,,0.00,meteohub,2013-05-10 17:24:00,
2013-05-10 12:29:00,56.7,51.6,-100.00,NNE,32,1.0,10.0,83,0.00,,,0.00,meteohub,2013-05-10 17:29:00,
2013-05-10 12:34:00,56.7,51.6,-100.00,NNW,333,11.0,11.0,83,0.00,,,0.00,meteohub,2013-05-10 17:34:00,
2013-05-10 12:39:00,56.7,51.6,-100.00,WNW,302,0.0,12.0,83,0.00,,,0.00,meteohub,2013-05-10 17:39:00,
2013-05-10 12:44:00,56.8,51.4,-100.00,WNW,292,7.0,12.0,82,0.00,,,0.00,meteohub,2013-05-10 17:44:00,
2013-05-10 12:49:00,56.8,51.4,-100.00,NW,322,4.0,13.0,82,0.00,,,0.00,meteohub,2013-05-10 17:49:00,
2013-05-10 12:54:00,57.2,51.8,-100.00,North,0,0.0,13.0,82,0.00,,,0.00,meteohub,2013-05-10 17:54:00,
2013-05-10 12:59:00,58.1,52.3,-100.00,NNW,329,0.0,13.0,81,0.00,,,0.00,meteohub,2013-05-10 17:59:00,
2013-05-10 13:04:00,58.6,52.2,-100.00,NNW,331,9.0,12.0,79,0.00,,,0.00,meteohub,2013-05-10 18:04:00,
2013-05-10 13:09:00,58.5,51.6,-100.00,WNW,286,10.0,13.0,78,0.00,,,0.00,meteohub,2013-05-10 18:09:00,
2013-05-10 13:14:00,58.5,51.6,-100.00,NW,317,6.0,14.0,78,0.00,,,0.00,meteohub,2013-05-10 18:14:00,
2013-05-10 13:19:00,58.5,52.0,-100.00,WNW,303,11.0,15.0,79,0.00,,,0.00,meteohub,2013-05-10 18:19:00,
2013-05-10 13:24:00,58.6,51.8,-100.00,WNW,286,0.0,15.0,78,0.00,,,0.00,meteohub,2013-05-10 18:24:00,
2013-05-10 13:29:00,58.6,51.8,-100.00,WNW,303,4.0,15.0,78,0.00,,,0.00,meteohub,2013-05-10 18:29:00,
2013-05-10 13:34:00,58.5,51.6,-100.00,NW,314,12.0,14.0,78,0.00,,,0.00,meteohub,2013-05-10 18:34:00,
2013-05-10 13:39:00,57.9,51.4,-100.00,WNW,296,4.0,17.0,79,0.00,,,0.00,meteohub,2013-05-10 18:39:00,
2013-05-10 13:44:00,57.7,51.6,-100.00,NW,315,0.0,17.0,80,0.00,,,0.00,meteohub,2013-05-10 18:44:00,
2013-05-10 13:49:00,57.6,51.8,-100.00,NW,323,5.0,17.0,81,0.00,,,0.00,meteohub,2013-05-10 18:49:00,
2013-05-10 13:54:00,57.2,51.4,-100.00,NNW,338,9.0,15.0,81,0.00,,,0.00,meteohub,2013-05-10 18:54:00,
2013-05-10 13:59:00,57.0,50.5,-100.00,NW,304,11.0,14.0,79,0.00,,,0.00,meteohub,2013-05-10 18:59:00,
2013-05-10 14:04:00,56.7,50.9,-100.00,North,355,6.0,16.0,81,0.00,,,0.00,meteohub,2013-05-10 19:04:00,
2013-05-10 14:09:00,56.7,51.3,-100.00,NW,319,3.0,16.0,82,0.00,,,0.00,meteohub,2013-05-10 19:09:00,
2013-05-10 14:14:00,56.8,51.1,-100.00,NNE,24,6.0,16.0,81,0.00,,,0.00,meteohub,2013-05-10 19:14:00,
2013-05-10 14:19:00,57.7,52.3,-100.00,NNW,329,5.0,15.0,82,0.00,,,0.00,meteohub,2013-05-10 19:19:00,
2013-05-10 14:24:00,58.3,51.4,-100.00,West,281,5.0,13.0,78,0.00,,,0.00,meteohub,2013-05-10 19:24:00,
2013-05-10 14:29:00,58.5,51.6,-100.00,NW,306,0.0,16.0,78,0.00,,,0.00,meteohub,2013-05-10 19:29:00,
2013-05-10 14:34:00,58.8,51.3,-100.00,WNW,283,5.0,16.0,76,0.00,,,0.00,meteohub,2013-05-10 19:34:00,
2013-05-10 14:39:00,59.0,51.1,-100.00,NW,313,9.0,16.0,75,0.00,,,0.00,meteohub,2013-05-10 19:39:00,
2013-05-10 14:44:00,59.0,51.4,-100.00,NW,314,4.0,17.0,76,0.00,,,0.00,meteohub,2013-05-10 19:44:00,
2013-05-10 14:49:00,58.8,50.9,-100.00,NNW,327,0.0,17.0,75,0.00,,,0.00,meteohub,2013-05-10 19:49:00,
2013-05-10 14:58:00,58.1,50.9,-100.00,NW,314,2.0,16.0,77,0.00,,,0.00,meteohub,2013-05-10 19:58:00,
2013-05-10 15:03:00,57.9,50.7,-100.00,NW,322,7.0,16.0,77,0.00,,,0.00,meteohub,2013-05-10 20:03:00,
2013-05-10 15:08:00,57.6,50.4,-100.00,NW,311,1.0,15.0,77,0.00,,,0.00,meteohub,2013-05-10 20:08:00,
2013-05-10 15:13:00,57.4,50.5,-100.00,NW,312,3.0,14.0,78,0.00,,,0.00,meteohub,2013-05-10 20:13:00,
2013-05-10 15:18:00,57.4,50.5,-100.00,NW,310,0.0,14.0,78,0.00,,,0.00,meteohub,2013-05-10 20:18:00,
2013-05-10 15:23:00,57.2,50.7,-100.00,NW,322,6.0,14.0,79,0.00,,,0.00,meteohub,2013-05-10 20:23:00,
2013-05-10 15:28:00,57.4,50.9,-100.00,NNW,348,13.0,13.0,79,0.00,,,0.00,meteohub,2013-05-10 20:28:00,
2013-05-10 15:33:00,57.2,50.7,-100.00,WNW,303,9.0,13.0,79,0.00,,,0.00,meteohub,2013-05-10 20:33:00,
2013-05-10 15:38:00,57.2,50.7,-100.00,NW,307,9.0,13.0,79,0.00,,,0.00,meteohub,2013-05-10 20:38:00,
2013-05-10 15:43:00,57.2,50.7,-100.00,NNW,331,12.0,15.0,79,0.00,,,0.00,meteohub,2013-05-10 20:43:00,
2013-05-10 15:48:00,57.0,50.5,-100.00,NNW,332,10.0,15.0,79,0.00,,,0.00,meteohub,2013-05-10 20:48:00,
2013-05-10 15:53:00,57.0,50.5,-100.00,NNW,329,7.0,15.0,79,0.00,,,0.00,meteohub,2013-05-10 20:53:00,
2013-05-10 15:58:00,56.8,50.7,-100.00,WNW,286,0.0,14.0,80,0.00,,,0.00,meteohub,2013-05-10 20:58:00,
2013-05-10 16:03:00,56.7,50.5,-100.00,NNW,344,1.0,14.0,80,0.00,,,0.00,meteohub,2013-05-10 21:03:00,
2013-05-10 16:08:00,56.7,50.9,-100.00,NW,319,0.0,14.0,81,0.00,,,0.00,meteohub,2013-05-10 21:08:00,
2013-05-10 16:13:00,56.5,50.7,-100.00,North,5,3.0,13.0,81,0.00,,,0.00,meteohub,2013-05-10 21:13:00,
2013-05-10 16:18:00,56.1,50.7,-100.00,NW,314,0.0,13.0,82,0.00,,,0.00,meteohub,2013-05-10 21:18:00,
2013-05-10 16:23:00,55.9,50.5,-100.00,NNW,344,6.0,13.0,82,0.00,,,0.00,meteohub,2013-05-10 21:23:00,
2013-05-10 16:28:00,55.9,50.5,-100.00,NNW,335,0.0,13.0,82,0.00,,,0.00,meteohub,2013-05-10 21:28:00,
2013-05-10 16:33:00,55.9,50.5,-100.00,NW,315,9.0,13.0,82,0.00,,,0.00,meteohub,2013-05-10 21:33:00,
2013-05-10 16:38:00,55.9,50.5,-100.00,NNW,329,7.0,13.0,82,0.00,,,0.00,meteohub,2013-05-10 21:38:00,
2013-05-10 16:43:00,55.9,50.2,-100.00,NW,313,0.0,13.0,81,0.00,,,0.00,meteohub,2013-05-10 21:43:00,
2013-05-10 16:48:00,55.9,50.2,-100.00,North,5,11.0,13.0,81,0.00,,,0.00,meteohub,2013-05-10 21:48:00,
2013-05-10 16:53:00,55.8,50.4,-100.00,NNW,338,4.0,13.0,82,0.00,,,0.00,meteohub,2013-05-10 21:53:00,
2013-05-10 16:58:00,55.8,50.4,-100.00,NW,319,5.0,13.0,82,0.00,,,0.00,meteohub,2013-05-10 21:58:00,
2013-05-10 17:03:00,55.8,50.4,-100.00,NW,306,3.0,13.0,82,0.00,,,0.00,meteohub,2013-05-10 22:03:00,
2013-05-10 17:08:00,55.8,50.4,-100.00,NNE,13,0.0,13.0,82,0.00,,,0.00,meteohub,2013-05-10 22:08:00,
2013-05-10 17:13:00,55.8,50.4,-100.00,ENE,76,0.0,13.0,82,0.00,,,0.00,meteohub,2013-05-10 22:13:00,
2013-05-10 17:18:00,55.8,50.4,-100.00,NW,307,4.0,11.0,82,0.00,,,0.00,meteohub,2013-05-10 22:18:00,
2013-05-10 17:23:00,55.8,50.4,-100.00,NNW,340,1.0,10.0,82,0.00,,,0.00,meteohub,2013-05-10 22:23:00,
2013-05-10 17:28:00,55.8,50.4,-100.00,WNW,302,0.0,10.0,82,0.00,,,0.00,meteohub,2013-05-10 22:28:00,
2013-05-10 17:33:00,55.8,50.4,-100.00,NW,313,6.0,10.0,82,0.00,,,0.00,meteohub,2013-05-10 22:33:00,
2013-05-10 17:38:00,55.6,50.2,-100.00,NNW,333,9.0,15.0,82,0.00,,,0.00,meteohub,2013-05-10 22:38:00,
2013-05-10 17:43:00,55.6,50.2,-100.00,NW,315,6.0,16.0,82,0.00,,,0.00,meteohub,2013-05-10 22:43:00,
2013-05-10 17:48:00,55.2,50.2,-100.00,NW,307,7.0,16.0,83,0.00,,,0.00,meteohub,2013-05-10 22:48:00,
2013-05-10 17:53:00,55.0,50.4,-100.00,NNW,334,5.0,16.0,84,0.00,,,0.00,meteohub,2013-05-10 22:53:00,
2013-05-10 17:58:00,55.0,50.4,-100.00,West,269,0.0,13.0,84,0.00,,,0.00,meteohub,2013-05-10 22:58:00,
2013-05-10 18:03:00,54.9,50.4,-100.00,NW,309,7.0,13.0,85,0.00,,,0.00,meteohub,2013-05-10 23:03:00,
2013-05-10 18:08:00,54.7,50.5,-100.00,WNW,303,0.0,12.0,86,0.00,,,0.00,meteohub,2013-05-10 23:08:00,
2013-05-10 18:13:00,54.3,50.2,-100.00,North,9,6.0,15.0,86,0.00,,,0.00,meteohub,2013-05-10 23:13:00,
2013-05-10 18:18:00,54.1,50.4,-100.00,NW,325,7.0,15.0,87,0.00,,,0.00,meteohub,2013-05-10 23:18:00,
2013-05-10 18:23:00,54.3,50.5,-100.00,North,0,5.0,12.0,87,0.00,,,0.00,meteohub,2013-05-10 23:23:00,
2013-05-10 18:28:00,54.3,50.2,-100.00,NW,311,4.0,10.0,86,0.00,,,0.00,meteohub,2013-05-10 23:28:00,
2013-05-10 18:33:00,54.7,50.5,-100.00,NW,324,3.0,10.0,86,0.00,,,0.00,meteohub,2013-05-10 23:33:00,
2013-05-10 18:38:00,54.9,50.4,-100.00,NW,304,1.0,10.0,85,0.00,,,0.00,meteohub,2013-05-10 23:38:00,
2013-05-10 18:43:00,54.7,50.2,-100.00,NW,325,0.0,10.0,85,0.00,,,0.00,meteohub,2013-05-10 23:43:00,
2013-05-10 18:48:00,54.7,50.2,-100.00,NW,323,8.0,10.0,85,0.00,,,0.00,meteohub,2013-05-10 23:48:00,
2013-05-10 18:53:00,54.7,50.2,-100.00,NW,304,1.0,10.0,85,0.00,,,0.00,meteohub,2013-05-10 23:53:00,
2013-05-10 18:58:00,54.5,50.0,-100.00,NW,323,3.0,10.0,85,0.00,,,0.00,meteohub,2013-05-10 23:58:00,
2013-05-10 19:03:00,54.5,50.4,-100.00,NW,318,0.0,10.0,86,0.00,,,0.00,meteohub,2013-05-11 00:03:00,
2013-05-10 19:08:00,54.3,50.2,-100.00,NNW,342,0.0,10.0,86,0.00,,,0.00,meteohub,2013-05-11 00:08:00,
2013-05-10 19:13:00,54.3,50.2,-100.00,NNW,346,0.0,10.0,86,0.00,,,0.00,meteohub,2013-05-11 00:13:00,
2013-05-10 19:18:00,54.3,50.2,-100.00,NW,314,4.0,10.0,86,0.00,,,0.00,meteohub,2013-05-11 00:18:00,
2013-05-10 19:23:00,54.3,50.2,-100.00,NW,319,0.0,10.0,86,0.00,,,0.00,meteohub,2013-05-11 00:23:00,
2013-05-10 19:28:00,54.3,50.2,-100.00,NNW,327,0.0,10.0,86,0.00,,,0.00,meteohub,2013-05-11 00:28:00,
2013-05-10 19:32:00,54.1,50.0,-100.00,NNW,330,0.0,10.0,86,0.00,,,0.00,meteohub,2013-05-11 00:32:00,
2013-05-10 19:37:00,54.1,50.0,-100.00,WNW,298,0.0,10.0,86,0.00,,,0.00,meteohub,2013-05-11 00:37:00,
2013-05-10 19:42:00,54.1,50.0,-100.00,WNW,302,0.0,1.0,86,0.00,,,0.00,meteohub,2013-05-11 00:42:00,
2013-05-10 19:47:00,54.1,50.0,-100.00,NW,309,0.0,1.0,86,0.00,,,0.00,meteohub,2013-05-11 00:47:00,
2013-05-10 19:52:00,54.1,50.0,-100.00,NNW,327,0.0,2.0,86,0.00,,,0.00,meteohub,2013-05-11 00:52:00,
2013-05-10 19:57:00,54.1,50.0,-100.00,NW,321,0.0,2.0,86,0.00,,,0.00,meteohub,2013-05-11 00:57:00,
2013-05-10 20:02:00,54.1,50.4,-100.00,NW,325,0.0,2.0,87,0.00,,,0.00,meteohub,2013-05-11 01:02:00,
2013-05-10 20:07:00,54.1,50.4,-100.00,NNW,328,0.0,2.0,87,0.00,,,0.00,meteohub,2013-05-11 01:07:00,
2013-05-10 20:12:00,54.0,50.2,-100.00,NW,326,0.0,1.0,87,0.00,,,0.00,meteohub,2013-05-11 01:12:00,
2013-05-10 20:17:00,54.0,50.2,-100.00,NNW,327,0.0,1.0,87,0.00,,,0.00,meteohub,2013-05-11 01:17:00,
2013-05-10 20:22:00,54.0,50.2,-100.00,NNW,327,0.0,1.0,87,0.00,,,0.00,meteohub,2013-05-11 01:22:00,
2013-05-10 20:27:00,54.0,50.2,-100.00,NW,326,0.0,0.0,87,0.00,,,0.00,meteohub,2013-05-11 01:27:00,
2013-05-10 20:32:00,54.1,50.4,-100.00,NW,325,0.0,0.0,87,0.00,,,0.00,meteohub,2013-05-11 01:32:00,
2013-05-10 20:37:00,54.0,50.2,-100.00,NW,325,0.0,0.0,87,0.00,,,0.00,meteohub,2013-05-11 01:37:00,
2013-05-10 20:42:00,54.0,50.2,-100.00,NW,323,0.0,0.0,87,0.00,,,0.00,meteohub,2013-05-11 01:42:00,
2013-05-10 20:47:00,54.0,50.2,-100.00,NW,323,0.0,0.0,87,0.00,,,0.00,meteohub,2013-05-11 01:47:00,
2013-05-10 20:52:00,54.1,50.4,-100.00,NW,323,0.0,0.0,87,0.00,,,0.00,meteohub,2013-05-11 01:52:00,
2013-05-10 20:57:00,54.1,50.4,-100.00,NW,323,0.0,0.0,87,0.00,,,0.00,meteohub,2013-05-11 01:57:00,
2013-05-10 21:02:00,54.0,50.2,-100.00,NW,323,0.0,0.0,87,0.00,,,0.00,meteohub,2013-05-11 02:02:00,
2013-05-10 21:07:00,54.0,50.2,-100.00,NW,323,0.0,0.0,87,0.00,,,0.00,meteohub,2013-05-11 02:07:00,
2013-05-10 21:12:00,54.0,50.2,-100.00,NW,323,0.0,0.0,87,0.00,,,0.00,meteohub,2013-05-11 02:12:00,
2013-05-10 21:17:00,54.0,50.2,-100.00,NW,323,0.0,0.0,87,0.00,,,0.00,meteohub,2013-05-11 02:17:00,
2013-05-10 21:22:00,54.0,50.2,-100.00,NW,323,0.0,0.0,87,0.00,,,0.00,meteohub,2013-05-11 02:22:00,
2013-05-10 21:27:00,54.0,50.2,-100.00,NW,322,0.0,0.0,87,0.00,,,0.00,meteohub,2013-05-11 02:27:00,
2013-05-10 21:32:00,54.0,50.2,-100.00,NW,321,0.0,0.0,87,0.00,,,0.00,meteohub,2013-05-11 02:32:00,
2013-05-10 21:37:00,54.0,50.2,-100.00,NW,321,0.0,1.0,87,0.00,,,0.00,meteohub,2013-05-11 02:37:00,
2013-05-10 21:42:00,54.0,50.2,-100.00,NW,321,0.0,1.0,87,0.00,,,0.00,meteohub,2013-05-11 02:42:00,
2013-05-10 21:47:00,54.0,50.2,-100.00,NW,321,0.0,1.0,87,0.00,,,0.00,meteohub,2013-05-11 02:47:00,
2013-05-10 21:52:00,54.0,50.2,-100.00,NW,321,0.0,0.0,87,0.00,,,0.00,meteohub,2013-05-11 02:52:00,
2013-05-10 21:57:00,54.0,50.2,-100.00,NW,319,0.0,0.0,87,0.00,,,0.00,meteohub,2013-05-11 02:57:00,
2013-05-10 22:02:00,54.0,50.2,-100.00,NW,319,0.0,1.0,87,0.00,,,0.00,meteohub,2013-05-11 03:02:00,
2013-05-10 22:07:00,54.0,50.2,-100.00,NW,319,0.0,1.0,87,0.00,,,0.00,meteohub,2013-05-11 03:07:00,
2013-05-10 22:12:00,54.0,50.2,-100.00,NW,318,0.0,1.0,87,0.00,,,0.00,meteohub,2013-05-11 03:12:00,
2013-05-10 22:17:00,54.0,50.2,-100.00,NW,318,0.0,0.0,87,0.00,,,0.00,meteohub,2013-05-11 03:17:00,
2013-05-10 22:22:00,53.8,50.0,-100.00,NW,318,0.0,0.0,87,0.00,,,0.00,meteohub,2013-05-11 03:22:00,
2013-05-10 22:27:00,53.8,50.0,-100.00,NW,310,1.0,0.0,87,0.00,,,0.00,meteohub,2013-05-11 03:27:00,
2013-05-10 22:33:00,53.8,50.4,-100.00,NW,310,0.0,2.0,88,0.00,,,0.00,meteohub,2013-05-11 03:33:00,
2013-05-10 22:38:00,53.6,50.2,-100.00,NW,310,0.0,2.0,88,0.00,,,0.00,meteohub,2013-05-11 03:38:00,
2013-05-10 22:43:00,53.4,50.0,-100.00,NW,310,0.0,2.0,88,0.00,,,0.00,meteohub,2013-05-11 03:43:00,
2013-05-10 22:48:00,53.4,50.0,-100.00,NW,310,0.0,0.0,88,0.00,,,0.00,meteohub,2013-05-11 03:48:00,
2013-05-10 22:53:00,53.2,49.8,-100.00,NW,310,0.0,0.0,88,0.00,,,0.00,meteohub,2013-05-11 03:53:00,
2013-05-10 22:58:00,53.1,49.6,-100.00,NW,310,0.0,0.0,88,0.00,,,0.00,meteohub,2013-05-11 03:58:00,
2013-05-10 23:01:00,52.9,49.5,-100.00,NW,310,0.0,0.0,88,0.00,,,0.00,meteohub,2013-05-11 04:01:00,
2013-05-10 23:06:00,52.7,49.3,-100.00,NW,310,0.0,0.0,88,0.00,,,0.00,meteohub,2013-05-11 04:06:00,
2013-05-10 23:11:00,52.5,49.1,-100.00,NW,310,0.0,0.0,88,0.00,,,0.00,meteohub,2013-05-11 04:11:00,
2013-05-10 23:16:00,52.2,48.7,-100.00,NW,310,0.0,0.0,88,0.00,,,0.00,meteohub,2013-05-11 04:16:00,
2013-05-10 23:21:00,51.8,48.4,-100.00,NW,310,0.0,0.0,88,0.00,,,0.00,meteohub,2013-05-11 04:21:00,
2013-05-10 23:26:00,51.4,48.0,-100.00,NW,310,0.0,0.0,88,0.00,,,0.00,meteohub,2013-05-11 04:26:00,
2013-05-10 23:31:00,51.1,48.0,-100.00,NW,310,0.0,0.0,89,0.00,,,0.00,meteohub,2013-05-11 04:31:00,
2013-05-10 23:36:00,51.1,48.0,-100.00,NW,310,0.0,0.0,89,0.00,,,0.00,meteohub,2013-05-11 04:36:00,
2013-05-10 23:41:00,50.9,48.0,-100.00,NW,310,0.0,0.0,90,0.00,,,0.00,meteohub,2013-05-11 04:41:00,
2013-05-10 23:46:00,50.7,47.8,-100.00,NW,310,0.0,0.0,90,0.00,,,0.00,meteohub,2013-05-11 04:46:00,
2013-05-10 23:51:00,50.5,47.7,-100.00,NW,310,0.0,0.0,90,0.00,,,0.00,meteohub,2013-05-11 04:51:00,
2013-05-10 23:56:00,50.4,47.5,-100.00,NW,310,0.0,0.0,90,0.00,,,0.00,meteohub,2013-05-11 04:56:00,